Weather History for Cedar Rapids, IA

Change the Weather History Date:

Thursday, October 11, 2012

  Actual Average Record
Temperature  
Mean Temperature 50 °F 52 °F  
Max Temperature 67 °F 64 °F 88 °F (1962)
Min Temperature 33 °F 41 °F 19 °F (1987)
Degree Days  
Heating Degree Days 15 13  
Month to date heating degree days 199 125  
Since 1 July heating degree days 417 282  
Cooling Degree Days 0 0  
Month to date cooling degree days 0 8  
Year to date cooling degree days 1044 748  
Moisture  
Dew Point 32 °F    
Average Humidity 51    
Maximum Humidity 70    
Minimum Humidity 32    
Precipitation  
Precipitation 0.00 in 0.08 in 0.76 in (1983)
Month to date precipitation 0.12 1.00  
Year to date precipitation 17.78 29.46  
Sea Level Pressure  
Sea Level Pressure 30.11 in    
Wind  
Wind Speed 14 mph (West)    
Max Wind Speed 22 mph    
Max Gust Speed 28 mph    
Visibility 10 miles    
Events      
T = Trace of Precipitation, MM = Missing Value Source: NWS Daily Summary

Daily Weather History Graph

Daily Weather History Graph

Search for Another Location

Airport:

Trip Planner

Search our weather history database for the weather conditions in past years. The results will help you decide how hot, cold, wet, or windy it might be!

Date:

Astronomy

Oct. 11, 2012 Rise Set
Actual Time 7:15 AM CDT 6:30 PM CDT
Civil Twilight 6:47 AM CDT 6:58 PM CDT
Nautical Twilight 6:14 AM CDT 7:31 PM CDT
Astronomical Twilight 5:42 AM CDT 8:03 PM CDT
Moon 2:50 AM CDT (10/11) 4:10 PM CDT (10/11)
Length of Visible Light 12h 11m
Length of Day
11h 15m
Waning Crescent, 18% of the Moon is Illuminated
Oct 11
Waning Crescent
Oct 15
New
Oct 21
First Quarter
Oct 29
Full
Nov 6
Last Quarter

Hourly Weather History & Observations

Time (CDT) Temp. Windchill Dew Point Humidity Pressure Visibility Wind Dir Wind Speed Gust Speed Precip Events Conditions
12:52 AM 35.1 °F 27.4 °F 26.1 °F 70% 30.09 in 10.0 mi South 10.4 mph - N/A   Clear
1:52 AM 36.0 °F 29.0 °F 26.1 °F 67% 30.08 in 10.0 mi South 9.2 mph - N/A   Clear
2:52 AM 39.0 °F 31.4 °F 28.9 °F 67% 30.08 in 10.0 mi SSW 12.7 mph - N/A   Clear
3:52 AM 39.0 °F 31.4 °F 28.9 °F 67% 30.06 in 10.0 mi South 12.7 mph - N/A   Clear
4:52 AM 39.0 °F 31.8 °F 30.0 °F 70% 30.07 in 10.0 mi SSW 11.5 mph - N/A   Clear
5:52 AM 39.0 °F 31.4 °F 30.9 °F 73% 30.06 in 10.0 mi SSW 12.7 mph - N/A   Clear
6:52 AM 39.0 °F 30.6 °F 30.9 °F 73% 30.06 in 10.0 mi SSW 15.0 mph - N/A   Clear
7:52 AM 39.9 °F 32.9 °F 30.9 °F 70% 30.08 in 10.0 mi SSW 11.5 mph - N/A   Clear
8:52 AM 45.0 °F 38.2 °F 32.0 °F 60% 30.08 in 10.0 mi SSW 15.0 mph - N/A   Clear
9:52 AM 52.0 °F - 33.1 °F 49% 30.08 in 10.0 mi SW 15.0 mph 24.2 mph N/A   Clear
10:52 AM 57.0 °F - 34.0 °F 42% 30.07 in 10.0 mi SSW 17.3 mph - N/A   Clear
11:52 AM 62.1 °F - 36.0 °F 38% 30.08 in 10.0 mi WSW 18.4 mph 23.0 mph N/A   Clear
12:52 PM 66.0 °F - 36.0 °F 33% 30.07 in 10.0 mi West 19.6 mph 25.3 mph N/A   Clear
1:52 PM 64.9 °F - 36.0 °F 34% 30.05 in 10.0 mi NW 15.0 mph 20.7 mph N/A   Clear
2:52 PM 62.6 °F - 35.6 °F 37% 30.06 in 10.0 mi NW 15.0 mph - N/A   Partly Cloudy
3:52 PM 60.1 °F - 33.1 °F 36% 30.09 in 10.0 mi NW 12.7 mph - N/A   Partly Cloudy
4:52 PM 55.0 °F - 35.1 °F 47% 30.11 in 10.0 mi North 18.4 mph - N/A   Clear
5:52 PM 51.8 °F - 33.8 °F 50% 30.13 in 10.0 mi North 21.9 mph 26.5 mph N/A   Overcast
6:52 PM 48.9 °F - 33.1 °F 54% 30.18 in 10.0 mi North 19.6 mph 25.3 mph N/A   Overcast
7:52 PM 46.4 °F 41.1 °F 33.8 °F 62% 30.19 in 10.0 mi North 11.5 mph - N/A   Overcast
8:52 PM 46.0 °F 39.9 °F 28.9 °F 51% 30.23 in 10.0 mi North 13.8 mph - N/A   Mostly Cloudy
10:52 PM 44.6 °F 39.2 °F 26.6 °F 49% 30.29 in 10.0 mi North 10.4 mph - N/A   Overcast
11:52 PM 44.6 °F 39.2 °F 26.6 °F 49% 30.30 in 10.0 mi North 10.4 mph - N/A   Overcast